• In Romania
  • List of Countries
  • For 7 days
  • Water Temperature
  • Satellite Maps
  • Weather Map
  • Weather Widgets
  • user-avatar
    Login

    Hourly Weather Lewis

    Today, 17 October, Wednesday

    Time Temperature Precipitation Wind Pressure Humidity
    00:00 +8°C° 0 mm 11 mps 744 mmHg 67%
    01:00 +8°C° 0 mm 11 mps 745 mmHg 66%
    02:00 +8°C° 0 mm 11 mps 745 mmHg 66%
    03:00 +8°C° 0 mm 11 mps 745 mmHg 65%
    04:00 +7°C° 0.1 mm 10 mps 746 mmHg 65%
    05:00 +7°C° 0.1 mm 10 mps 746 mmHg 66%
    06:00 +7°C° 0.1 mm 10 mps 747 mmHg 67%
    07:00 +8°C° 0.1 mm 9 mps 748 mmHg 66%
    08:00 +8°C° 0.1 mm 9 mps 749 mmHg 66%
    09:00 +8°C° 0.1 mm 9 mps 749 mmHg 66%
    10:00 +8°C° 0.1 mm 9 mps 750 mmHg 65%
    11:00 +8°C° 0.1 mm 9 mps 751 mmHg 64%
    12:00 +8°C° 0.1 mm 9 mps 751 mmHg 63%
    13:00 +8°C° 0.1 mm 9 mps 752 mmHg 64%
    14:00 +8°C° 0.1 mm 9 mps 752 mmHg 64%
    15:00 +8°C° 0.1 mm 9 mps 753 mmHg 64%
    16:00 +8°C° 0.1 mm 9 mps 754 mmHg 66%
    17:00 +7°C° 0.1 mm 9 mps 754 mmHg 67%
    18:00 +7°C° 0.1 mm 9 mps 755 mmHg 69%
    19:00 +7°C° 0 mm 9 mps 756 mmHg 68%
    20:00 +7°C° 0 mm 9 mps 756 mmHg 68%
    21:00 +7°C° 0 mm 9 mps 757 mmHg 68%
    22:00 +7°C° 0 mm 8 mps 757 mmHg 68%
    23:00 +6°C° 0 mm 8 mps 758 mmHg 67%

    Tomorrow, 18 October, Thursday

    Time Temperature Precipitation Wind Pressure Humidity
    00:00 +6°C° 0 mm 8 mps 758 mmHg 67%
    01:00 +6°C° 0 mm 7 mps 758 mmHg 66%
    02:00 +8°C° 0 mm 7 mps 758 mmHg 66%
    03:00 +8°C° 0 mm 7 mps 758 mmHg 65%
    04:00 +8°C° 0 mm 7 mps 758 mmHg 66%
    05:00 +8°C° 0 mm 6 mps 759 mmHg 68%
    06:00 +8°C° 0 mm 6 mps 759 mmHg 69%
    07:00 +8°C° 0 mm 6 mps 759 mmHg 69%
    08:00 +8°C° 0 mm 6 mps 759 mmHg 69%
    09:00 +8°C° 0 mm 6 mps 759 mmHg 69%
    10:00 +8°C° 0 mm 7 mps 759 mmHg 69%
    11:00 +9°C° 0 mm 7 mps 759 mmHg 68%
    12:00 +9°C° 0 mm 7 mps 759 mmHg 67%
    13:00 +9°C° 0 mm 8 mps 758 mmHg 68%
    14:00 +9°C° 0 mm 8 mps 758 mmHg 70%
    15:00 +8°C° 0 mm 9 mps 757 mmHg 71%
    16:00 +8°C° 0 mm 9 mps 757 mmHg 72%
    17:00 +8°C° 0 mm 10 mps 757 mmHg 74%
    18:00 +8°C° 0 mm 11 mps 756 mmHg 75%
    19:00 +8°C° 0 mm 11 mps 756 mmHg 75%
    20:00 +8°C° 0 mm 12 mps 755 mmHg 75%
    21:00 +8°C° 0 mm 12 mps 755 mmHg 75%
    22:00 +8°C° 0.1 mm 13 mps 754 mmHg 75%
    23:00 +8°C° 0.1 mm 13 mps 754 mmHg 76%

    Day after tomorrow, 19 October, Friday

    Time Temperature Precipitation Wind Pressure Humidity
    00:00 +8°C° 0.1 mm 14 mps 753 mmHg 77%
    01:00 +8°C° 0.5 mm 14 mps 753 mmHg 79%
    02:00 +8°C° 0.5 mm 15 mps 752 mmHg 81%
    03:00 +8°C° 0.5 mm 15 mps 752 mmHg 83%
    04:00 +8°C° 0.8 mm 14 mps 752 mmHg 84%
    05:00 +9°C° 0.8 mm 12 mps 752 mmHg 84%
    06:00 +9°C° 0.8 mm 11 mps 752 mmHg 85%
    07:00 +8°C° 0.1 mm 10 mps 752 mmHg 80%
    08:00 +8°C° 0.1 mm 10 mps 753 mmHg 76%
    09:00 +8°C° 0.1 mm 9 mps 754 mmHg 71%
    10:00 +8°C° 0 mm 9 mps 754 mmHg 70%
    11:00 +9°C° 0 mm 8 mps 755 mmHg 69%
    12:00 +10°C° 0 mm 8 mps 755 mmHg 68%
    13:00 +10°C° 0 mm 7 mps 755 mmHg 68%
    14:00 +10°C° 0 mm 7 mps 756 mmHg 69%
    15:00 +10°C° 0 mm 7 mps 756 mmHg 69%
    16:00 +9°C° 0 mm 7 mps 756 mmHg 72%
    17:00 +9°C° 0 mm 6 mps 756 mmHg 74%
    18:00 +8°C° 0 mm 6 mps 756 mmHg 76%
    19:00 +9°C° 0 mm 6 mps 756 mmHg 78%
    20:00 +9°C° 0 mm 7 mps 756 mmHg 79%
    21:00 +9°C° 0 mm 7 mps 756 mmHg 80%
    22:00 +9°C° 0 mm 8 mps 756 mmHg 84%
    23:00 +10°C° 0 mm 9 mps 756 mmHg 88%

    20 October, Saturday

    Time Temperature Precipitation Wind Pressure Humidity
    00:00 +11°C° 0 mm 9 mps 755 mmHg 92%
    01:00 +11°C° 0.1 mm 11 mps 755 mmHg 91%
    02:00 +10°C° 0.1 mm 12 mps 754 mmHg 90%
    03:00 +10°C° 0.1 mm 13 mps 754 mmHg 90%
    04:00 +10°C° 0 mm 13 mps 754 mmHg 90%
    05:00 +10°C° 0 mm 14 mps 753 mmHg 91%
    06:00 +10°C° 0 mm 14 mps 753 mmHg 91%
    07:00 +12°C° 0.1 mm 14 mps 753 mmHg 92%
    08:00 +12°C° 0.1 mm 13 mps 753 mmHg 93%
    09:00 +12°C° 0.1 mm 13 mps 753 mmHg 93%
    10:00 +12°C° 0.1 mm 12 mps 753 mmHg 94%
    11:00 +12°C° 0.1 mm 12 mps 754 mmHg 94%
    12:00 +12°C° 0.1 mm 12 mps 754 mmHg 95%
    13:00 +12°C° 0.2 mm 12 mps 754 mmHg 95%
    14:00 +12°C° 0.2 mm 12 mps 753 mmHg 94%
    15:00 +12°C° 0.2 mm 12 mps 753 mmHg 94%
    16:00 +12°C° 0.4 mm 12 mps 754 mmHg 94%
    17:00 +12°C° 0.4 mm 11 mps 754 mmHg 94%
    18:00 +12°C° 0.4 mm 11 mps 754 mmHg 94%
    19:00 +12°C° 0.1 mm 10 mps 754 mmHg 94%
    20:00 +12°C° 0.1 mm 9 mps 754 mmHg 94%
    21:00 +11°C° 0.1 mm 8 mps 754 mmHg 94%
    22:00 +11°C° 0.5 mm 7 mps 754 mmHg 95%
    23:00 +11°C° 0.5 mm 7 mps 754 mmHg 96%

    21 October, Sunday

    Time Temperature Precipitation Wind Pressure Humidity
    00:00 +11°C° 0.5 mm 6 mps 754 mmHg 96%
    01:00 +10°C° 1.9 mm 6 mps 754 mmHg 95%
    02:00 +10°C° 1.9 mm 7 mps 753 mmHg 94%
    03:00 +9°C° 1.9 mm 7 mps 753 mmHg 93%
    04:00 +9°C° 1.2 mm 7 mps 753 mmHg 91%
    05:00 +7°C° 1.2 mm 8 mps 753 mmHg 89%
    06:00 +7°C° 1.2 mm 9 mps 753 mmHg 87%
    07:00 +7°C° 0.5 mm 9 mps 754 mmHg 84%
    08:00 +7°C° 0.5 mm 10 mps 754 mmHg 81%
    09:00 +8°C° 0.5 mm 11 mps 755 mmHg 78%
    10:00 +7°C° 0.1 mm 12 mps 755 mmHg 74%
    11:00 +7°C° 0.1 mm 12 mps 756 mmHg 70%
    12:00 +7°C° 0.1 mm 13 mps 757 mmHg 65%
    13:00 +7°C° 0.2 mm 13 mps 757 mmHg 64%
    14:00 +7°C° 0.2 mm 13 mps 758 mmHg 64%
    15:00 +7°C° 0.2 mm 13 mps 758 mmHg 63%
    16:00 +5°C° 0.1 mm 13 mps 759 mmHg 64%
    17:00 +5°C° 0.1 mm 13 mps 759 mmHg 65%
    18:00 +5°C° 0.1 mm 13 mps 760 mmHg 67%
    19:00 +5°C° 0.1 mm 13 mps 760 mmHg 65%
    20:00 +5°C° 0.1 mm 13 mps 761 mmHg 63%
    21:00 +5°C° 0.1 mm 13 mps 761 mmHg 61%
    22:00 +5°C° 0.1 mm 13 mps 761 mmHg 63%
    23:00 +5°C° 0.1 mm 14 mps 761 mmHg 65%

    22 October, Monday

    Time Temperature Precipitation Wind Pressure Humidity
    00:00 +5°C° 0.1 mm 15 mps 762 mmHg 66%
    01:00 +6°C° 0.1 mm 15 mps 762 mmHg 67%
    02:00 +6°C° 0.1 mm 14 mps 762 mmHg 68%
    03:00 +6°C° 0.1 mm 14 mps 762 mmHg 70%
    04:00 +6°C° 0.1 mm 14 mps 762 mmHg 70%
    05:00 +6°C° 0.1 mm 14 mps 761 mmHg 71%
    06:00 +6°C° 0.1 mm 14 mps 761 mmHg 71%
    07:00 +6°C° 0.2 mm 15 mps 761 mmHg 74%
    08:00 +6°C° 0.2 mm 15 mps 761 mmHg 76%
    09:00 +6°C° 0.2 mm 15 mps 761 mmHg 79%
    10:00 +8°C° 0.3 mm 14 mps 762 mmHg 79%
    11:00 +8°C° 0.3 mm 14 mps 762 mmHg 79%
    12:00 +8°C° 0.3 mm 14 mps 762 mmHg 80%
    13:00 +8°C° 0.2 mm 13 mps 762 mmHg 80%
    14:00 +8°C° 0.2 mm 13 mps 762 mmHg 80%
    15:00 +8°C° 0.2 mm 12 mps 762 mmHg 80%
    16:00 +8°C° 0.1 mm 12 mps 763 mmHg 80%
    17:00 +8°C° 0.1 mm 11 mps 763 mmHg 81%
    18:00 +8°C° 0.1 mm 11 mps 764 mmHg 81%
    19:00 +8°C° 0.1 mm 11 mps 764 mmHg 82%
    20:00 +8°C° 0.1 mm 10 mps 764 mmHg 82%
    21:00 +8°C° 0.1 mm 10 mps 765 mmHg 83%
    22:00 +8°C° 0.1 mm 10 mps 765 mmHg 84%
    23:00 +8°C° 0.1 mm 10 mps 765 mmHg 85%
    Show more